CW5586 Weather Reports


Display with metric or nautical units.
time (UTC)temp
F
wind
direction
speed
MPH
gust
MPH
rain 1hr
in
rain 24hr
in
rain mn
in
humidity
%
barometer
mb
20260906113604 63 269 5.0 17.0 0.00 0.48 0.01 68 1018.8
20260906110604 64 220 6.0 15.0 0.00 0.48 0.01 66 1018.3
20260906104603 64 163 6.0 9.0 0.00 0.48 0.01 65 1017.9
20260906103104 64 197 5.0 14.0 0.00 0.48 0.01 66 1017.8
20260906101603 63 172 2.0 12.0 0.00 0.48 0.01 70 1017.8
20260906094604 63 198 5.0 12.0 0.00 0.48 0.01 72 1017.5
20260906091604 63 234 6.0 10.0 0.00 0.48 0.01 73 1017.3
20260906091104 63 242 5.0 10.0 0.00 0.48 0.01 75 1017.2
20260906090604 63 273 3.0 9.0 0.00 0.48 0.01 74 1017.3
20260906090115 62 281 2.0 9.0 0.00 0.48 0.01 76 1017.2
20260906084104 62 296 1.0 8.0 0.00 0.48 0.01 79 1017.1
20260906083104 61 277 9.0 12.0 0.00 0.48 0.01 81 1017.0
20260906081104 60 281 2.0 5.0 0.00 0.48 0.01 86 1016.9
20260906080116 60 263 0.0 8.0 0.00 0.48 0.01 88 1016.8
20260906074604 59 252 2.0 8.0 0.00 0.48 0.01 91 1016.5
20260906074103 59 227 3.0 5.0 0.00 0.48 0.01 92 1016.3
20260906073104 58 191 1.0 3.0 0.00 0.48 0.01 94 1016.3
20260906071604 57 202 2.0 3.0 0.00 0.48 0.01 96 1016.3
20260906071104 57 132 1.0 3.0 0.00 0.48 0.01 96 1016.3
20260906070116 56 0 0.0 3.0 0.00 0.49 0.01 96 1016.2
20260906064604 56 199 1.0 2.0 0.00 0.49 0.01 97 1016.0
20260906064104 56 137 1.0 2.0 0.00 0.49 0.01 97 1015.9
20260906063603 55 0 0.0 2.0 0.00 0.49 0.01 97 1015.9
20260906063104 55 172 0.0 2.0 0.00 0.49 0.01 97 1015.8
20260906060116 51 0 0.0 2.0 0.00 0.49 0.01 97 1015.5
20260906054604 49 0 0.0 2.0 0.00 0.49 0.01 97 1015.4
20260906053104 47 0 0.0 2.0 0.00 0.49 0.01 96 1015.2
20260906051605 47 0 0.0 2.0 0.00 0.49 0.01 97 1015.0
20260906051104 46 0 0.0 2.0 0.00 0.49 0.01 96 1015.0
20260906050604 46 0 0.0 2.0 0.00 0.50 0.01 96 1014.9
20260906044104 46 0 0.0 2.0 0.00 0.51 0.01 96 1014.7
20260906041604 46 64 1.0 2.0 0.00 0.51 0.01 96 1014.3
20260906040605 46 0 0.0 2.0 0.00 0.51 0.01 96 1014.1
20260906040116 46 64 0.0 2.0 0.00 0.51 0.01 96 1014.1
20260906034605 46 66 2.0 2.0 0.00 0.51 0.01 96 1013.9
20260906033604 46 49 0.0 1.0 0.00 0.51 0.01 96 1013.7
20260906031604 47 0 0.0 1.0 0.00 0.51 0.01 96 1013.6
20260906031104 47 0 0.0 1.0 0.01 0.51 0.01 96 1013.6
20260906021104 47 0 0.0 0.0 0.00 0.56 0.00 96 1013.1
20260906020605 47 0 0.0 0.0 0.00 0.59 0.00 95 1013.0
20260906014604 47 0 0.0 0.0 0.00 0.60 0.00 95 1012.8
20260906014104 47 0 0.0 0.0 0.00 0.60 0.00 95 1012.8
20260906013604 47 0 0.0 0.0 0.00 0.60 0.00 95 1012.8
20260906013104 47 0 0.0 0.0 0.00 0.60 0.00 95 1012.7
20260906010115 48 0 0.0 0.0 0.00 0.61 0.00 94 1012.3
20260906004104 48 0 0.0 1.0 0.00 0.61 0.00 95 1012.2
20260906003103 49 0 0.0 1.0 0.00 0.61 0.00 94 1012.2
20260906001102 49 0 0.0 2.0 0.00 0.61 0.00 95 1012.0
20260906000115 49 217 1.0 2.0 0.00 0.61 0.00 94 1011.8
20260905233603 50 0 0.0 0.0 0.00 0.61 0.00 94 1011.6
20260905233104 50 0 0.0 2.0 0.00 0.61 0.00 94 1011.5
20260905231603 50 0 0.0 2.0 0.00 0.61 0.00 94 1011.3
20260905231103 50 0 0.0 2.0 0.00 0.61 0.00 93 1011.4
20260905223103 52 0 0.0 2.0 0.31 0.61 0.00 94 1010.9
20260905221604 52 242 1.0 2.0 0.31 0.61 0.00 94 1010.5
20260905214603 53 236 2.0 2.0 0.00 0.53 0.31 94 1010.0
20260905214103 53 234 1.0 2.0 0.00 0.53 0.31 93 1010.0
20260905213603 53 229 1.0 5.0 0.00 0.53 0.31 93 1010.0
20260905211603 53 0 0.0 1.0 0.00 0.53 0.31 93 1009.5
20260905211103 53 318 1.0 2.0 0.00 0.53 0.31 93 1009.5
20260905210603 53 305 1.0 3.0 0.00 0.53 0.31 93 1009.5
20260905210115 53 329 0.0 5.0 0.00 0.53 0.31 93 1009.3
20260905204603 53 327 3.0 9.0 0.00 0.54 0.31 93 1009.0
20260905203103 53 351 3.0 6.0 0.00 0.54 0.31 93 1008.7
20260905201603 53 325 1.0 5.0 0.00 0.54 0.31 93 1008.6
20260905200603 53 323 2.0 3.0 0.00 0.54 0.31 93 1008.3
20260905193603 53 340 1.0 3.0 0.00 0.54 0.31 93 1007.8
20260905193103 53 338 1.0 3.0 0.00 0.54 0.31 93 1007.8
20260905191603 53 33 1.0 2.0 0.00 0.54 0.31 92 1007.6
20260905190115 53 0 0.0 2.0 0.00 0.54 0.31 92 1007.2
20260905184604 54 0 0.0 2.0 0.00 0.54 0.31 92 1006.9
20260905184102 54 0 0.0 2.0 0.00 0.54 0.31 92 1006.7
20260905181103 55 0 0.0 2.0 0.11 0.54 0.31 91 1006.1
20260905180603 56 22 0.0 2.0 0.11 0.54 0.31 91 1006.0
20260905180115 56 22 1.0 3.0 0.11 0.54 0.31 90 1005.9
20260905174603 56 45 2.0 6.0 0.11 0.54 0.31 89 1005.4
20260905174103 57 18 2.0 9.0 0.11 0.54 0.31 88 1005.3
20260905173604 57 319 3.0 10.0 0.11 0.54 0.31 87 1005.3
20260905171603 60 326 5.0 10.0 0.00 0.43 0.20 85 1004.7
20260905171103 60 265 3.0 10.0 0.00 0.43 0.20 86 1004.6
20260905170603 59 267 2.0 10.0 0.00 0.43 0.20 87 1004.4
20260905164103 58 248 2.0 12.0 0.00 0.43 0.20 88 1004.2
20260905163603 58 253 1.0 12.0 0.00 0.43 0.20 88 1004.1
20260905163104 58 352 1.0 17.0 0.00 0.43 0.20 88 1004.1
20260905160115 58 273 1.0 16.0 0.00 0.43 0.20 89 1003.7
20260905154603 58 194 2.0 8.0 0.00 0.43 0.20 88 1003.5
20260905153103 58 315 2.0 13.0 0.01 0.43 0.20 85 1003.5
20260905151104 58 350 6.0 9.0 0.02 0.43 0.20 86 1003.4
20260905150115 58 294 10.0 14.0 0.02 0.43 0.20 86 1003.4
20260905143103 57 350 3.0 15.0 0.02 0.43 0.19 85 1003.4
20260905141103 60 330 9.0 15.0 0.01 0.41 0.17 78 1003.3
20260905133103 60 304 7.0 15.0 0.02 0.41 0.17 83 1002.9
20260905131603 58 205 5.0 15.0 0.02 0.40 0.17 84 1003.0
20260905130603 60 291 5.0 21.0 0.02 0.39 0.16 75 1002.8
20260905130115 61 291 3.0 20.0 0.02 0.39 0.16 72 1002.8
20260905124603 61 199 6.0 18.0 0.02 0.39 0.16 73 1002.8
20260905123603 60 275 13.0 17.0 0.02 0.39 0.16 74 1002.8
20260905121603 61 260 5.0 18.0 0.00 0.38 0.14 73 1002.5
20260905120603 61 248 13.0 18.0 0.00 0.38 0.14 73 1002.6